Hourly Data Report for September 23, 2017

All times are specified in Local Standard Time (LST). Add 1 hour to adjust for Daylight Saving Time where and when it is observed.

PANGNIRTUNG
NUNAVUT

66°08'36.300" N
65°42'40.500" W
22.60 m
2403049
71826
WXP

Download Data

Hourly Data (September 2017)
Hourly Data Report for September 23, 2017
Temp Definition
°C
Dew Point Temp Definition
°C
Rel Hum Definition
%
Wind Dir Definition
10's deg

Wind Spd Definition
km/h
Visibility Definition
km
Stn Press Definition
kPa
Hmdx Definition


Wind Chill Definition


Weather Definition


TIME
00:00 -1.3 -6.3 69 0 1   100.71   -2 LegendNANA
01:00 -2.1 -6.8 70 19 2   100.68   -3 LegendNANA
02:00 -1.5 -6.9 67 12 5   100.69   -3 LegendNANA
03:00 -2.1 -7.2 68 22 3   100.68   -3 LegendNANA
04:00 -2.6 -7.0 72 5 2   100.67   -3 LegendNANA
05:00 -2.6 -7.2 71 24 6   100.70   -5 LegendNANA
06:00 -2.4 -6.6 73 23 3   100.73   -4 LegendNANA
07:00 -1.8 -6.1 72 0 1   100.74   -2 LegendNANA
08:00 -0.3 -5.8 66 13 2   100.73   -1 LegendNANA
09:00 -0.6 -5.6 69 35 2   100.71   -1 LegendNANA
10:00 -0.3 -4.5 73 25 7   100.70   -3 LegendNANA
11:00 1.3 -6.6 56 23 17   100.67     LegendNANA
12:00 2.0 -5.2 59 24 15   100.64     LegendNANA
13:00 2.4 -4.3 61 24 16   100.60     LegendNANA
14:00 2.3 -3.7 64 24 19   100.58     LegendNANA
15:00 2.3 -3.3 67 24 25   100.58     LegendNANA
16:00 2.0 -3.0 69 24 26   100.57     LegendNANA
17:00 1.1 -2.8 75 24 25   100.53     LegendNANA
18:00 0.8 -3.4 73 24 23   100.51     LegendNANA
19:00 1.0 -4.6 66 23 15   100.47     LegendNANA
20:00 0.9 -6.2 59 3 6   100.45     LegendNANA
21:00 0.8 -6.7 57 30 6   100.41     LegendNANA
22:00 0.7 -6.0 61 30 9   100.38     LegendNANA
23:00 -0.1 -5.2 69 27 12   100.35   -4 LegendNANA

Notes on Data Quality.

Legend

  • E = Estimated
  • M = Missing
  • NA = Not Available
  • ‡ = Partner data that is not subject to review by the National Climate Archives
Date modified: